RYR2LW EGSS-LIPY

Flight info

Callsign RYR2LW
Flight time 1h 57m
Altitude 37000
Route CLN M84 KONAN UL607 KOK DCT RITAX DCT KRH DCT UTABA DCT BEMKI DCT ELMEM DCT GIRIS DCT SUMIR DCT CHI L612 LANLI
Aircraft B738/M-SDE2E3FGHIRWXY/LB1

Departure

Time 2026-05-04 08:46
Airport London Stansted Airport (EGSS)

Arrival

Time 2026-05-04 10:43
Airport Marche Airport (LIPY)
Time Latitude Longitude Altitude Speed Heading
2026-05-04 08:16 51.89346 0.25789 352 ft 0 kts 43°
2026-05-04 08:29 51.89345 0.25789 361 ft 1 kts 43°
2026-05-04 08:31 51.89279 0.25769 356 ft 0 kts 313°
2026-05-04 08:33 51.89279 0.25768 351 ft 3 kts 312°
2026-05-04 08:35 51.89001 0.25015 358 ft 20 kts 223°
2026-05-04 08:35 51.88901 0.24863 358 ft 19 kts 223°
2026-05-04 08:35 51.88803 0.24718 358 ft 19 kts 222°
2026-05-04 08:35 51.88707 0.24576 354 ft 19 kts 223°
2026-05-04 08:37 51.88171 0.23768 340 ft 17 kts 223°
2026-05-04 08:37 51.88084 0.23638 337 ft 17 kts 223°
2026-05-04 08:37 51.88001 0.23511 339 ft 16 kts 223°
2026-05-04 08:38 51.87920 0.23390 336 ft 16 kts 223°
2026-05-04 08:38 51.87842 0.23274 339 ft 15 kts 223°
2026-05-04 08:38 51.87768 0.23161 338 ft 14 kts 223°
2026-05-04 08:40 51.87400 0.22288 325 ft 13 kts 251°
2026-05-04 08:40 51.87413 0.22184 324 ft 6 kts 311°
2026-05-04 08:40 51.87416 0.22180 320 ft 0 kts 313°
2026-05-04 08:42 51.87422 0.22169 321 ft 4 kts 313°
2026-05-04 08:43 51.87458 0.22105 322 ft 10 kts 313°
2026-05-04 08:43 51.87510 0.22027 320 ft 10 kts 344°
2026-05-04 08:43 51.87552 0.22060 320 ft 0 kts 43°
2026-05-04 08:44 51.87553 0.22061 320 ft 1 kts 43°
2026-05-04 08:46 51.91753 0.30593 2663 ft 222 kts 90°
2026-05-04 08:46 51.91384 0.33037 3237 ft 231 kts 114°
2026-05-04 08:46 51.90605 0.35491 3485 ft 258 kts 116°
2026-05-04 08:46 51.89782 0.38139 4163 ft 266 kts 116°
2026-05-04 08:47 51.88958 0.40850 4966 ft 270 kts 116°
2026-05-04 08:47 51.88132 0.43605 5758 ft 274 kts 115°
2026-05-04 08:47 51.87304 0.46403 6541 ft 277 kts 116°
2026-05-04 08:47 51.86471 0.49238 7328 ft 281 kts 116°
2026-05-04 08:48 51.85628 0.52110 8078 ft 285 kts 116°
2026-05-04 08:48 51.84771 0.55026 8808 ft 289 kts 116°
2026-05-04 08:48 51.83902 0.57979 9534 ft 293 kts 116°
2026-05-04 08:48 51.83189 0.61076 10242 ft 298 kts 104°
2026-05-04 08:49 51.82928 0.64512 10528 ft 321 kts 91°
2026-05-04 08:50 51.83865 0.88083 14190 ft 364 kts 88°
2026-05-04 08:50 51.84012 0.92205 14892 ft 369 kts 88°
2026-05-04 08:51 51.84158 0.96354 15622 ft 372 kts 88°
2026-05-04 08:51 51.84308 1.00552 16311 ft 376 kts 88°
2026-05-04 08:51 51.84457 1.04803 16979 ft 380 kts 88°
2026-05-04 08:51 51.84572 1.09037 17611 ft 384 kts 93°
2026-05-04 08:52 51.84021 1.13236 18197 ft 384 kts 117°
2026-05-04 08:52 51.82567 1.16878 18882 ft 380 kts 135°
2026-05-04 08:52 51.80575 1.19549 19523 ft 378 kts 149°
2026-05-04 08:52 51.78369 1.21880 20137 ft 380 kts 151°
2026-05-04 08:53 51.76123 1.24168 20708 ft 384 kts 151°
2026-05-04 08:54 51.59169 1.36664 24523 ft 387 kts 182°
2026-05-04 08:55 51.56467 1.36771 25036 ft 388 kts 182°
2026-05-04 08:55 51.53766 1.36883 25546 ft 390 kts 182°
2026-05-04 08:55 51.51049 1.37028 26047 ft 391 kts 182°
2026-05-04 08:55 51.48332 1.37191 26548 ft 392 kts 182°
2026-05-04 08:57 51.33488 1.58007 29289 ft 439 kts 134°
2026-05-04 09:01 51.12055 2.17259 33901 ft 472 kts 98°
2026-05-04 09:01 51.11834 2.22461 34217 ft 471 kts 98°
2026-05-04 09:01 51.11593 2.27648 34489 ft 471 kts 99°
2026-05-04 09:01 51.11329 2.32837 34794 ft 470 kts 99°
2026-05-04 09:02 51.11048 2.38015 35133 ft 468 kts 99°
2026-05-04 09:02 51.10759 2.43166 35432 ft 467 kts 99°
2026-05-04 09:02 51.10467 2.48315 35677 ft 467 kts 99°
2026-05-04 09:02 51.10174 2.53465 35943 ft 467 kts 99°
2026-05-04 09:03 51.09881 2.58608 36220 ft 466 kts 99°
2026-05-04 09:03 51.09443 2.63690 36450 ft 461 kts 107°
2026-05-04 09:03 51.08553 2.68550 36652 ft 456 kts 117°
2026-05-04 09:03 51.07256 2.73046 36904 ft 451 kts 121°
2026-05-04 09:04 51.05868 2.77523 36984 ft 454 kts 121°
2026-05-04 09:04 51.03064 2.86496 36983 ft 450 kts 121°
2026-05-04 09:05 51.00339 2.95320 36981 ft 441 kts 121°
2026-05-04 09:05 50.97659 3.04039 36993 ft 438 kts 121°
2026-05-04 09:06 50.94995 3.12701 36995 ft 437 kts 121°
2026-05-04 09:08 50.84248 3.47329 37004 ft 440 kts 122°
2026-05-04 09:08 50.81530 3.56011 37003 ft 441 kts 122°
2026-05-04 09:09 50.78794 3.64718 37000 ft 443 kts 122°
2026-05-04 09:09 50.76050 3.73427 37010 ft 443 kts 122°
2026-05-04 09:10 50.73299 3.82129 37009 ft 443 kts 122°
2026-05-04 09:10 50.70538 3.90825 37007 ft 443 kts 122°
2026-05-04 09:11 50.67775 3.99497 37011 ft 442 kts 122°
2026-05-04 09:11 50.65017 4.08130 37011 ft 440 kts 122°
2026-05-04 09:12 50.62725 4.15276 37020 ft 439 kts 122°
2026-05-04 09:14 50.51683 4.49413 37017 ft 437 kts 122°
2026-05-04 09:14 50.48911 4.57904 37019 ft 436 kts 122°
2026-05-04 09:15 50.46138 4.66380 37014 ft 436 kts 122°
2026-05-04 09:15 50.43361 4.74840 37023 ft 436 kts 123°
2026-05-04 09:17 50.30731 5.12934 37019 ft 439 kts 123°
2026-05-04 09:18 50.27916 5.21349 37018 ft 440 kts 123°
2026-05-04 09:18 50.25071 5.29828 37020 ft 440 kts 123°
2026-05-04 09:19 50.22224 5.38288 37017 ft 440 kts 123°
2026-05-04 09:19 50.19371 5.46732 37022 ft 440 kts 123°
2026-05-04 09:20 50.16506 5.55185 37010 ft 440 kts 123°
2026-05-04 09:20 50.13639 5.63611 37008 ft 440 kts 123°
2026-05-04 09:21 50.10772 5.72014 37014 ft 439 kts 123°
2026-05-04 09:21 50.07903 5.80399 37004 ft 438 kts 123°
2026-05-04 09:22 50.04932 5.88629 37008 ft 435 kts 125°
2026-05-04 09:22 50.01877 5.96734 37022 ft 434 kts 125°
2026-05-04 09:23 49.98825 6.04827 37019 ft 434 kts 125°
2026-05-04 09:23 49.95786 6.12918 37019 ft 433 kts 125°
2026-05-04 09:25 49.83632 6.45131 37019 ft 434 kts 125°
2026-05-04 09:26 49.80572 6.53180 37023 ft 434 kts 125°
2026-05-04 09:26 49.77500 6.61232 37005 ft 435 kts 125°
2026-05-04 09:27 49.74424 6.69276 37012 ft 435 kts 125°
2026-05-04 09:27 49.71333 6.77329 37013 ft 435 kts 126°
2026-05-04 09:28 49.68240 6.85362 37020 ft 436 kts 126°
2026-05-04 09:28 49.65132 6.93413 37016 ft 436 kts 126°
2026-05-04 09:29 49.62023 7.01442 37022 ft 436 kts 126°
2026-05-04 09:29 49.58900 7.09478 37017 ft 437 kts 126°
2026-05-04 09:30 49.55774 7.17502 37018 ft 437 kts 126°
2026-05-04 09:30 49.52641 7.25517 37015 ft 437 kts 126°
2026-05-04 09:31 49.49495 7.33541 37020 ft 437 kts 126°
2026-05-04 09:31 49.46348 7.41545 37016 ft 438 kts 126°
2026-05-04 09:32 49.43209 7.49500 37009 ft 438 kts 126°
2026-05-04 09:34 49.30505 7.81464 37010 ft 439 kts 126°
2026-05-04 09:34 49.27317 7.89432 37011 ft 439 kts 126°
2026-05-04 09:35 49.24118 7.97394 37013 ft 439 kts 126°
2026-05-04 09:35 49.20918 8.05337 37018 ft 438 kts 126°
2026-05-04 09:37 49.08086 8.36958 37018 ft 438 kts 126°
2026-05-04 09:38 49.04865 8.44836 37019 ft 438 kts 126°
2026-05-04 09:38 49.01639 8.52708 37019 ft 438 kts 126°
2026-05-04 09:39 48.98005 8.60035 37018 ft 430 kts 141°
2026-05-04 09:39 48.93389 8.65713 37022 ft 426 kts 147°
2026-05-04 09:40 48.88717 8.71241 37029 ft 427 kts 146°
2026-05-04 09:40 48.84036 8.76828 37031 ft 428 kts 146°
2026-05-04 09:42 48.65336 8.99211 37026 ft 430 kts 146°
2026-05-04 09:43 48.60634 9.04805 37015 ft 430 kts 146°
2026-05-04 09:43 48.55923 9.10396 37016 ft 431 kts 146°
2026-05-04 09:44 48.51211 9.15978 37023 ft 430 kts 146°
2026-05-04 09:46 48.32370 9.38160 37029 ft 429 kts 146°
2026-05-04 09:46 48.27657 9.43676 37029 ft 429 kts 146°
2026-05-04 09:47 48.22976 9.49220 37027 ft 429 kts 145°
2026-05-04 09:49 48.04517 9.71951 37015 ft 431 kts 144°
2026-05-04 09:51 47.89950 9.89676 37024 ft 431 kts 144°
2026-05-04 09:51 47.85291 9.95315 37032 ft 431 kts 145°
2026-05-04 09:52 47.80632 10.00944 37023 ft 432 kts 145°
2026-05-04 09:52 47.75974 10.06555 37030 ft 431 kts 145°
2026-05-04 09:53 47.71312 10.12161 37023 ft 431 kts 145°
2026-05-04 09:53 47.66649 10.17754 37036 ft 431 kts 145°
2026-05-04 09:54 47.61982 10.23339 37024 ft 431 kts 145°
2026-05-04 09:54 47.57317 10.28908 37039 ft 430 kts 145°
2026-05-04 09:55 47.52500 10.34118 37047 ft 428 kts 150°
2026-05-04 09:55 47.47499 10.38873 37037 ft 427 kts 151°
2026-05-04 09:56 47.42548 10.43602 37068 ft 426 kts 150°
2026-05-04 09:56 47.37586 10.48405 37080 ft 426 kts 150°
2026-05-04 09:57 47.32619 10.53217 37084 ft 428 kts 150°
2026-05-04 09:57 47.27580 10.57858 37065 ft 426 kts 158°
2026-05-04 09:58 47.22132 10.61239 37099 ft 424 kts 161°
2026-05-04 09:58 47.16653 10.64479 37105 ft 425 kts 161°
2026-05-04 10:00 46.94758 10.77776 37109 ft 426 kts 160°
2026-05-04 10:04 46.58908 11.05494 37099 ft 432 kts 150°
2026-05-04 10:04 46.53850 11.10198 37101 ft 431 kts 150°
2026-05-04 10:05 46.48831 11.14850 37099 ft 431 kts 150°
2026-05-04 10:05 46.43776 11.19529 37085 ft 431 kts 150°
2026-05-04 10:06 46.38726 11.24194 37085 ft 430 kts 150°
2026-05-04 10:06 46.33681 11.28844 37098 ft 430 kts 150°
2026-05-04 10:08 46.15723 11.44141 37169 ft 427 kts 154°
2026-05-04 10:08 46.10493 11.48214 37171 ft 427 kts 153°
2026-05-04 10:09 46.05272 11.52311 37182 ft 428 kts 153°
2026-05-04 10:09 46.00038 11.56423 37170 ft 429 kts 153°
2026-05-04 10:10 45.94795 11.60540 37174 ft 429 kts 153°
2026-05-04 10:10 45.89548 11.64652 37177 ft 430 kts 153°
2026-05-04 10:11 45.84291 11.68759 37159 ft 431 kts 153°
2026-05-04 10:11 45.79030 11.72863 37162 ft 431 kts 153°
2026-05-04 10:12 45.73760 11.76966 37156 ft 431 kts 153°
2026-05-04 10:12 45.68483 11.81064 37145 ft 431 kts 153°
2026-05-04 10:13 45.63210 11.85150 37137 ft 431 kts 153°
2026-05-04 10:13 45.57932 11.89231 37129 ft 431 kts 154°
2026-05-04 10:14 45.52689 11.93277 37130 ft 431 kts 154°
2026-05-04 10:16 45.34191 12.07482 35831 ft 432 kts 154°
2026-05-04 10:16 45.31568 12.09488 35277 ft 433 kts 154°
2026-05-04 10:16 45.28903 12.11524 34682 ft 434 kts 154°
2026-05-04 10:16 45.26238 12.13556 34080 ft 435 kts 154°
2026-05-04 10:17 45.23566 12.15592 33466 ft 437 kts 154°
2026-05-04 10:17 45.20884 12.17634 32841 ft 439 kts 154°
2026-05-04 10:19 45.02319 12.31945 29432 ft 426 kts 152°
2026-05-04 10:19 44.99779 12.34080 28971 ft 424 kts 151°
2026-05-04 10:19 44.97250 12.36205 28492 ft 421 kts 151°
2026-05-04 10:19 44.94734 12.38305 28033 ft 419 kts 151°
2026-05-04 10:20 44.92231 12.40379 27569 ft 416 kts 151°
2026-05-04 10:20 44.89739 12.42435 27106 ft 414 kts 151°
2026-05-04 10:20 44.87266 12.44469 26642 ft 411 kts 151°
2026-05-04 10:20 44.84801 12.46495 26192 ft 409 kts 151°
2026-05-04 10:21 44.82349 12.48508 25728 ft 406 kts 151°
2026-05-04 10:21 44.79916 12.50502 25269 ft 404 kts 151°
2026-05-04 10:21 44.77492 12.52482 24778 ft 402 kts 151°
2026-05-04 10:21 44.75080 12.54446 24314 ft 399 kts 151°
2026-05-04 10:22 44.70301 12.58332 23419 ft 394 kts 151°
2026-05-04 10:22 44.67934 12.60255 22971 ft 391 kts 151°
2026-05-04 10:22 44.65590 12.62158 22525 ft 388 kts 151°
2026-05-04 10:23 44.63259 12.64048 22084 ft 386 kts 151°
2026-05-04 10:23 44.60944 12.65924 21644 ft 383 kts 150°
2026-05-04 10:25 44.45226 12.78563 18628 ft 361 kts 151°
2026-05-04 10:25 44.43051 12.80300 18217 ft 358 kts 151°
2026-05-04 10:25 44.40899 12.82018 17800 ft 355 kts 151°
2026-05-04 10:25 44.38762 12.83724 17388 ft 352 kts 151°
2026-05-04 10:26 44.36638 12.85417 16972 ft 350 kts 151°
2026-05-04 10:26 44.34536 12.87091 16565 ft 347 kts 151°
2026-05-04 10:26 44.32448 12.88757 16169 ft 344 kts 151°
2026-05-04 10:26 44.30380 12.90413 15787 ft 341 kts 151°
2026-05-04 10:27 44.28328 12.92055 15387 ft 339 kts 151°
2026-05-04 10:27 44.26294 12.93682 15002 ft 336 kts 151°
2026-05-04 10:27 44.24271 12.95299 14586 ft 334 kts 151°
2026-05-04 10:27 44.22261 12.96905 14192 ft 332 kts 151°
2026-05-04 10:28 44.20285 12.98480 13800 ft 331 kts 151°
2026-05-04 10:28 44.18296 13.00067 13405 ft 329 kts 151°
2026-05-04 10:28 44.16315 13.01645 13007 ft 327 kts 151°
2026-05-04 10:28 44.14342 13.03215 12610 ft 325 kts 151°
2026-05-04 10:29 44.12383 13.04773 12212 ft 324 kts 151°
2026-05-04 10:29 44.10431 13.06325 11831 ft 322 kts 151°
2026-05-04 10:29 44.08496 13.07863 11421 ft 321 kts 151°
2026-05-04 10:29 44.06561 13.09399 11030 ft 319 kts 151°
2026-05-04 10:30 44.04636 13.10926 10688 ft 316 kts 151°
2026-05-04 10:30 44.02759 13.12415 10563 ft 306 kts 151°
2026-05-04 10:30 44.00935 13.13860 10405 ft 298 kts 151°
2026-05-04 10:30 43.99160 13.15265 10275 ft 290 kts 151°
2026-05-04 10:31 43.97435 13.16628 10149 ft 281 kts 151°
2026-05-04 10:31 43.95736 13.17936 9904 ft 278 kts 156°
2026-05-04 10:32 43.84597 13.21383 8179 ft 270 kts 169°
2026-05-04 10:33 43.82761 13.21922 7902 ft 269 kts 168°
2026-05-04 10:33 43.80934 13.22465 7632 ft 268 kts 168°
2026-05-04 10:33 43.79138 13.23001 7346 ft 267 kts 168°
2026-05-04 10:33 43.77301 13.23551 7048 ft 266 kts 168°
2026-05-04 10:34 43.75516 13.24086 6775 ft 265 kts 168°
2026-05-04 10:34 43.73724 13.24624 6434 ft 262 kts 168°
2026-05-04 10:34 43.71967 13.25151 6129 ft 255 kts 168°
2026-05-04 10:34 43.70251 13.25665 5846 ft 249 kts 168°
2026-05-04 10:35 43.68586 13.26164 5617 ft 240 kts 168°
2026-05-04 10:35 43.67005 13.26640 5481 ft 224 kts 168°
2026-05-04 10:35 43.65537 13.27053 5354 ft 207 kts 175°
2026-05-04 10:35 43.64195 13.26661 5162 ft 196 kts 213°
2026-05-04 10:36 43.63154 13.25504 5134 ft 195 kts 224°
2026-05-04 10:36 43.62185 13.24175 5046 ft 198 kts 225°
2026-05-04 10:36 43.61213 13.22817 4949 ft 200 kts 225°
2026-05-04 10:36 43.60235 13.21457 4851 ft 199 kts 225°
2026-05-04 10:37 43.59263 13.20111 4766 ft 197 kts 225°
2026-05-04 10:37 43.58286 13.18764 4583 ft 200 kts 225°
2026-05-04 10:37 43.57291 13.17400 4369 ft 202 kts 224°
2026-05-04 10:37 43.56291 13.16090 4151 ft 195 kts 215°
2026-05-04 10:39 43.51165 13.21474 2783 ft 179 kts 74°
2026-05-04 10:39 43.51883 13.22874 2584 ft 185 kts 46°
2026-05-04 10:39 43.52798 13.24138 2302 ft 185 kts 46°
2026-05-04 10:40 43.53712 13.25386 2034 ft 184 kts 46°
2026-05-04 10:40 43.54611 13.26614 1780 ft 180 kts 46°
2026-05-04 10:40 43.55493 13.27818 1531 ft 176 kts 46°
2026-05-04 10:40 43.56343 13.28978 1318 ft 166 kts 46°
2026-05-04 10:41 43.57121 13.30044 1103 ft 152 kts 46°
2026-05-04 10:41 43.57845 13.31034 880 ft 143 kts 46°
2026-05-04 10:41 43.58552 13.32001 700 ft 144 kts 46°
2026-05-04 10:41 43.59255 13.32981 514 ft 145 kts 47°
2026-05-04 10:42 43.59968 13.33978 298 ft 147 kts 44°
2026-05-04 10:42 43.60700 13.34953 105 ft 147 kts 46°
2026-05-04 10:42 43.61388 13.35897 47 ft 118 kts 44°
2026-05-04 10:42 43.61807 13.36466 45 ft 50 kts 44°
2026-05-04 10:43 43.62053 13.36799 40 ft 42 kts 45°
2026-05-04 10:44 43.61984 13.36716 40 ft 28 kts 225°
2026-05-04 10:45 43.61845 13.36527 43 ft 27 kts 224°
2026-05-04 10:45 43.61715 13.36350 47 ft 25 kts 224°
2026-05-04 10:45 43.61593 13.36186 48 ft 24 kts 224°
2026-05-04 10:45 43.61464 13.36008 47 ft 30 kts 225°
2026-05-04 10:46 43.61323 13.35810 48 ft 28 kts 225°
2026-05-04 10:46 43.61191 13.35628 52 ft 26 kts 225°
2026-05-04 10:46 43.61058 13.35560 51 ft 15 kts 177°
2026-05-04 10:46 43.60957 13.35568 49 ft 14 kts 178°
2026-05-04 10:47 43.60875 13.35509 53 ft 14 kts 224°
2026-05-04 10:47 43.60809 13.35419 51 ft 13 kts 224°
2026-05-04 10:47 43.60757 13.35354 54 ft 5 kts 203°
2026-05-04 10:47 43.60731 13.35367 54 ft 3 kts 135°
2026-05-04 10:49 43.60706 13.35392 54 ft 0 kts 159°